TimeMST,TemperatureF,Dew PointF,Humidity,Sea Level PressureIn,VisibilityMPH,Wind Direction,Wind SpeedMPH,Gust SpeedMPH,PrecipitationIn,Events,Conditions,WindDirDegrees,DateUTC
12:53 AM,-0.0,-4.0,83,30.48,10.0,West,12.7,-,N/A,,Clear,270,2013-01-19 07:53:00
1:53 AM,-0.9,-5.1,83,30.47,10.0,West,9.2,-,N/A,,Clear,260,2013-01-19 08:53:00
2:53 AM,-2.0,-6.0,83,30.46,10.0,West,10.4,-,N/A,,Clear,260,2013-01-19 09:53:00
3:53 AM,-2.0,-6.0,83,30.46,10.0,West,10.4,-,N/A,,Clear,260,2013-01-19 10:53:00
4:53 AM,1.0,-5.1,75,30.51,10.0,West,6.9,-,N/A,,Clear,260,2013-01-19 11:53:00
5:53 AM,1.0,-5.1,75,30.61,10.0,West,12.7,-,N/A,,Clear,280,2013-01-19 12:53:00
6:53 AM,-0.9,-7.1,75,30.65,10.0,West,11.5,-,N/A,,Clear,270,2013-01-19 13:53:00
7:53 AM,1.0,-6.0,72,30.64,10.0,West,11.5,-,N/A,,Clear,260,2013-01-19 14:53:00
8:53 AM,3.0,-4.0,73,30.65,10.0,West,5.8,-,N/A,,Clear,260,2013-01-19 15:53:00
9:53 AM,12.9,1.9,62,30.63,10.0,West,8.1,-,N/A,,Clear,280,2013-01-19 16:53:00
10:53 AM,23.0,7.0,50,30.57,10.0,West,4.6,-,N/A,,Clear,260,2013-01-19 17:53:00
11:53 AM,33.1,1.9,27,30.49,10.0,North,3.5,-,N/A,,Clear,360,2013-01-19 18:53:00
12:53 PM,37.0,3.0,24,30.46,10.0,Calm,Calm,-,N/A,,Clear,0,2013-01-19 19:53:00
1:53 PM,37.0,8.1,30,30.45,10.0,Calm,Calm,-,N/A,,Clear,0,2013-01-19 20:53:00
2:53 PM,36.0,12.9,39,30.46,10.0,Calm,Calm,-,N/A,,Clear,0,2013-01-19 21:53:00
3:53 PM,33.1,12.9,43,30.47,10.0,Calm,Calm,-,N/A,,Clear,0,2013-01-19 22:53:00
4:53 PM,24.1,12.9,62,30.50,10.0,Calm,Calm,-,N/A,,Clear,0,2013-01-19 23:53:00
5:53 PM,17.1,6.1,62,30.55,10.0,WSW,3.5,-,N/A,,Clear,240,2013-01-20 00:53:00
6:53 PM,10.0,1.9,70,30.61,10.0,WSW,6.9,-,N/A,,Clear,250,2013-01-20 01:53:00
7:53 PM,9.0,1.0,70,30.61,10.0,WSW,4.6,-,N/A,,Clear,240,2013-01-20 02:53:00
8:53 PM,9.0,1.0,70,30.61,10.0,West,6.9,-,N/A,,Clear,260,2013-01-20 03:53:00
10:53 PM,10.9,1.9,67,30.48,10.0,West,10.4,-,N/A,,Clear,270,2013-01-20 05:53:00
11:53 PM,10.0,1.9,70,30.42,10.0,West,10.4,-,N/A,,Clear,270,2013-01-20 06:53:00